DLH5KC EDDM-ESGG

Flight info

Callsign DLH5KC
Flight time N/A
Altitude 33000
Route INPUD3Q INPUD Y102 UPALA M726 LASGA DCT NEDIK DCT ROKAM L997 RISMA
Aircraft A20N/M-SDE2E3FGHIRWXY/LB1

Departure

Time 2026-05-06 12:31
Airport Munich Airport (EDDM)

Arrival

Time N/A
Airport Göteborg Landvetter Airport (ESGG)
Time Latitude Longitude Altitude Speed Heading
2026-05-06 11:51 48.35658 11.79720 1473 ft 0 kts 83°
2026-05-06 12:15 48.35656 11.79700 1473 ft 2 kts 83°
2026-05-06 12:15 48.35654 11.79678 1473 ft 2 kts 84°
2026-05-06 12:15 48.35653 11.79656 1473 ft 2 kts 83°
2026-05-06 12:15 48.35651 11.79633 1473 ft 2 kts 84°
2026-05-06 12:16 48.35649 11.79611 1474 ft 2 kts 83°
2026-05-06 12:16 48.35648 11.79589 1474 ft 2 kts 84°
2026-05-06 12:16 48.35646 11.79569 1474 ft 1 kts 83°
2026-05-06 12:16 48.35649 11.79556 1474 ft 1 kts 150°
2026-05-06 12:17 48.35655 11.79553 1474 ft 1 kts 183°
2026-05-06 12:17 48.35660 11.79553 1474 ft 0 kts 174°
2026-05-06 12:20 48.35659 11.79553 1474 ft 0 kts 174°
2026-05-06 12:20 48.35652 11.79555 1474 ft 1 kts 174°
2026-05-06 12:21 48.35639 11.79557 1474 ft 2 kts 174°
2026-05-06 12:21 48.35619 11.79560 1474 ft 3 kts 174°
2026-05-06 12:21 48.35592 11.79565 1474 ft 4 kts 174°
2026-05-06 12:21 48.35559 11.79570 1475 ft 5 kts 173°
2026-05-06 12:22 48.35520 11.79577 1475 ft 6 kts 178°
2026-05-06 12:22 48.35481 11.79555 1475 ft 6 kts 224°
2026-05-06 12:22 48.35471 11.79492 1476 ft 6 kts 283°
2026-05-06 12:22 48.35508 11.79450 1476 ft 7 kts 343°
2026-05-06 12:23 48.35566 11.79435 1475 ft 9 kts 353°
2026-05-06 12:23 48.35635 11.79423 1475 ft 10 kts 353°
2026-05-06 12:23 48.35705 11.79411 1474 ft 6 kts 354°
2026-05-06 12:23 48.35758 11.79402 1474 ft 8 kts 353°
2026-05-06 12:24 48.35824 11.79390 1473 ft 10 kts 353°
2026-05-06 12:24 48.35895 11.79375 1473 ft 8 kts 338°
2026-05-06 12:24 48.35956 11.79341 1472 ft 10 kts 349°
2026-05-06 12:24 48.36012 11.79331 1472 ft 7 kts 354°
2026-05-06 12:25 48.36067 11.79317 1472 ft 8 kts 332°
2026-05-06 12:25 48.36087 11.79237 1472 ft 9 kts 268°
2026-05-06 12:25 48.36081 11.79139 1473 ft 9 kts 265°
2026-05-06 12:25 48.36072 11.79038 1473 ft 10 kts 262°
2026-05-06 12:26 48.36063 11.78932 1474 ft 10 kts 263°
2026-05-06 12:26 48.36055 11.78820 1474 ft 11 kts 265°
2026-05-06 12:26 48.36047 11.78702 1475 ft 11 kts 263°
2026-05-06 12:26 48.36037 11.78578 1475 ft 12 kts 264°
2026-05-06 12:27 48.36027 11.78450 1475 ft 12 kts 263°
2026-05-06 12:27 48.36017 11.78316 1476 ft 13 kts 263°
2026-05-06 12:27 48.36006 11.78177 1476 ft 13 kts 264°
2026-05-06 12:27 48.35995 11.78035 1476 ft 13 kts 263°
2026-05-06 12:28 48.35984 11.77889 1477 ft 14 kts 264°
2026-05-06 12:28 48.35973 11.77754 1477 ft 11 kts 263°
2026-05-06 12:28 48.35985 11.77688 1477 ft 6 kts 320°
2026-05-06 12:28 48.36032 11.77665 1477 ft 7 kts 352°
2026-05-06 12:29 48.36089 11.77661 1476 ft 8 kts 14°
2026-05-06 12:29 48.36146 11.77708 1476 ft 10 kts 44°
2026-05-06 12:29 48.36193 11.77797 1475 ft 11 kts 53°
2026-05-06 12:29 48.36244 11.77899 1475 ft 12 kts 54°
2026-05-06 12:30 48.36259 11.77930 1474 ft 0 kts 53°
2026-05-06 12:30 48.36261 11.77934 1474 ft 2 kts 53°
2026-05-06 12:30 48.36308 11.78027 1474 ft 16 kts 52°
2026-05-06 12:30 48.36381 11.78209 1473 ft 24 kts 71°
2026-05-06 12:31 48.36423 11.78651 1472 ft 76 kts 83°
2026-05-06 12:31 48.36513 11.79791 1467 ft 141 kts 84°
2026-05-06 12:31 48.36635 11.81354 1883 ft 153 kts 81°
2026-05-06 12:31 48.36765 11.82939 2500 ft 156 kts 82°
2026-05-06 12:32 48.36885 11.84550 3144 ft 158 kts 80°
2026-05-06 12:32 48.37340 11.86035 3609 ft 167 kts 38°
2026-05-06 12:32 48.38467 11.86534 4017 ft 181 kts
2026-05-06 12:32 48.39778 11.86530 4465 ft 197 kts
2026-05-06 12:33 48.41185 11.86483 4834 ft 210 kts 350°
2026-05-06 12:33 48.42514 11.85444 5061 ft 231 kts 317°
2026-05-06 12:33 48.43615 11.83546 5358 ft 250 kts 311°
2026-05-06 12:33 48.44753 11.81471 5738 ft 264 kts 311°
2026-05-06 12:34 48.45945 11.79331 6305 ft 270 kts 311°
2026-05-06 12:34 48.47154 11.77177 6924 ft 272 kts 311°
2026-05-06 12:34 48.48381 11.75006 7535 ft 275 kts 311°
2026-05-06 12:34 48.49629 11.72803 8145 ft 278 kts 311°
2026-05-06 12:35 48.50885 11.70588 8692 ft 281 kts 311°
2026-05-06 12:35 48.52151 11.68354 9208 ft 284 kts 311°
2026-05-06 12:35 48.53436 11.66088 9729 ft 287 kts 311°
2026-05-06 12:35 48.54733 11.63799 10250 ft 289 kts 310°
2026-05-06 12:36 48.56055 11.61524 10745 ft 290 kts 315°
2026-05-06 12:36 48.57623 11.59611 11097 ft 294 kts 328°
2026-05-06 12:36 48.59497 11.58214 11325 ft 307 kts 337°
2026-05-06 12:36 48.61526 11.57041 11563 ft 318 kts 339°
2026-05-06 12:37 48.63641 11.55863 11802 ft 329 kts 338°
2026-05-06 12:37 48.65804 11.54650 12065 ft 334 kts 338°
2026-05-06 12:37 48.67986 11.53409 12489 ft 336 kts 337°
2026-05-06 12:37 48.70157 11.52161 12950 ft 336 kts 336°
2026-05-06 12:38 48.72341 11.50902 13355 ft 335 kts 336°
2026-05-06 12:38 48.74531 11.49632 13710 ft 340 kts 336°
2026-05-06 12:38 48.76737 11.48348 14061 ft 340 kts 336°
2026-05-06 12:38 48.78943 11.47064 14373 ft 343 kts 335°
2026-05-06 12:39 48.81170 11.45766 14683 ft 343 kts 335°
2026-05-06 12:39 48.83417 11.44457 14965 ft 349 kts 335°
2026-05-06 12:39 48.85686 11.43137 15331 ft 352 kts 335°
2026-05-06 12:39 48.87976 11.41803 15713 ft 355 kts 335°
2026-05-06 12:40 48.90283 11.40457 16084 ft 357 kts 335°
2026-05-06 12:40 48.92595 11.39107 16437 ft 359 kts 335°
2026-05-06 12:40 48.94936 11.37738 16784 ft 362 kts 335°